SCP
-0 -0 0 -0 0 -0 -0 -0 -0 0 0 0 0 0 0 0 0 0 0 0 0 0
-0 -0 -0 -0 -0 -0 -0 0 0 0 0 0 0 0 0 0 0 0 0 0 0 0
-0 -0 -0 -0 -0 -0 -0 -0 0 0 0 0 0 0 0 0 0 0 0 0 0 0
-0 -0 -0 -0 -0 -0 -0 -0 -0 0 0 0 0 0 0 0 0 0 0 0 0 0
-0 -0 -0 -0 0 0 -0 -0 -0 0 0 0 0 0 0 0 0 0 0 0 0 0
0 0 0 0 0 0 0 -0 -0 -0 0 0 0 0 0 0 0 0 0 0 0 0
0 0 0 0 0 0 0 0 0 0 0 0 0 0 0 0 0 0 0 0 0 0
0 0 0 0 0 0 0 0 0 0 0 0 0 0 0 0 0 0 0 0 0 0
1 0 1 1 1 1 1 1 0 0 0 0 0 0 0 0 0 0 0 0 0 0
2 3 2 1 1 1 1 1 1 0 0 0 0 0 0 0 0 0 0 0 0 0
4 3 2 2 1 2 1 1 1 1 0 0 0 0 0 0 0 0 0 0 0 0
4 5 1 0 0 2 2 1 1 0 0 0 0 0 0 0 0 0 0 0 0 0
3 4 6 3 2 3 3 2 1 0 0 0 0 0 0 0 0 0 0 0 0 0
3 4 6 8 8 5 2 0 0 0 0 0 0 0 0 0 0 0 0 0 0 0
Wind_Speed_500mb
49 48 42 34 28 28 28 28 27 31 30 24 26 22 19 19 20 21 22 21 22 26
50 52 48 42 36 30 27 26 31 38 37 32 32 24 21 21 20 22 21 21 24 21
52 52 53 48 44 41 35 33 33 40 43 41 35 29 25 23 23 23 23 23 23 16
59 55 55 55 50 45 43 41 38 33 36 40 36 32 27 26 26 26 26 25 22 18
63 60 59 60 58 54 50 47 43 40 39 38 37 35 31 29 28 29 29 27 23 22
71 67 65 66 63 62 60 56 54 53 51 47 44 40 36 35 32 31 31 29 26 22
73 76 75 68 70 69 69 68 65 62 57 54 50 47 43 41 37 35 33 30 26 23
73 73 80 83 80 78 77 77 75 70 65 60 57 53 50 45 39 37 34 30 28 26
51 72 84 87 88 85 87 89 83 82 76 68 63 59 55 47 41 37 36 32 30 30
97 102 100 81 86 87 92 94 96 91 86 79 70 64 56 50 42 38 34 33 34 33
83 100 102 91 83 94 104 103 106 100 94 85 78 63 63 55 45 41 36 34 35 33
77 87 89 101 95 98 103 115 118 111 103 95 85 76 65 58 44 51 45 38 40 36
52 67 80 87 101 108 133 122 111 109 104 93 85 79 67 62 59 50 45 42 44 39
40 51 57 76 84 88 82 71 63 43 55 92 91 87 79 67 61 49 47 44 46 44
Wind_Direction_500mb
228 227 229 230 227 223 229 226 223 219 217 226 235 245 239 245 251 259 265 267 273 274
225 225 225 226 226 224 230 228 228 227 229 234 237 240 243 251 260 264 264 270 283 274
228 226 226 226 227 223 222 223 226 227 232 232 230 232 241 253 268 268 267 272 288 259
231 231 230 230 231 228 224 222 220 223 217 216 223 234 246 256 268 267 269 276 278 247
235 235 234 234 234 232 228 225 227 223 220 221 225 234 245 253 265 267 267 267 267 255
242 240 240 239 237 235 233 229 228 228 228 229 232 237 246 255 260 262 261 265 264 249
246 248 248 242 240 239 236 234 232 231 232 233 235 238 242 248 256 258 258 260 254 238
262 254 254 252 250 243 238 236 236 235 232 234 234 237 239 245 252 255 254 255 242 229
257 257 256 252 252 251 248 242 236 235 234 234 231 232 234 238 246 248 251 248 237 224
249 251 253 253 250 252 250 248 241 235 234 232 231 231 232 235 238 243 246 244 234 223
249 248 249 234 243 260 250 245 243 237 233 231 231 223 228 223 229 231 232 234 228 225
250 250 253 234 231 249 254 247 241 235 230 228 228 223 221 218 219 225 217 217 218 219
252 250 252 253 250 254 252 251 248 239 234 230 229 225 216 223 215 216 210 204 208 211
291 272 268 261 256 251 238 228 227 235 268 248 236 224 210 213 214 216 209 207 209 207
Wind_Speed_850mb
49 48 42 34 28 28 28 28 27 31 30 24 26 22 19 19 20 21 22 21 22 26
50 52 48 42 36 30 27 26 31 38 37 32 32 24 21 21 20 22 21 21 24 21
52 52 53 48 44 41 35 33 33 40 43 41 35 29 25 23 23 23 23 23 23 16
59 55 55 55 50 45 43 41 38 33 36 40 36 32 27 26 26 26 26 25 22 18
63 60 59 60 58 54 50 47 43 40 39 38 37 35 31 29 28 29 29 27 23 22
71 67 65 66 63 62 60 56 54 53 51 47 44 40 36 35 32 31 31 29 26 22
73 76 75 68 70 69 69 68 65 62 57 54 50 47 43 41 37 35 33 30 26 23
73 73 80 83 80 78 77 77 75 70 65 60 57 53 50 45 39 37 34 30 28 26
51 72 84 87 88 85 87 89 83 82 76 68 63 59 55 47 41 37 36 32 30 30
97 102 100 81 86 87 92 94 96 91 86 79 70 64 56 50 42 38 34 33 34 33
83 100 102 91 83 94 104 103 106 100 94 85 78 63 63 55 45 41 36 34 35 33
77 87 89 101 95 98 103 115 118 111 103 95 85 76 65 58 44 51 45 38 40 36
52 67 80 87 101 108 133 122 111 109 104 93 85 79 67 62 59 50 45 42 44 39
40 51 57 76 84 88 82 71 63 43 55 92 91 87 79 67 61 49 47 44 46 44
Wind_Direction_850mb
228 227 229 230 227 223 229 226 223 219 217 226 235 245 239 245 251 259 265 267 273 274
225 225 225 226 226 224 230 228 228 227 229 234 237 240 243 251 260 264 264 270 283 274
228 226 226 226 227 223 222 223 226 227 232 232 230 232 241 253 268 268 267 272 288 259
231 231 230 230 231 228 224 222 220 223 217 216 223 234 246 256 268 267 269 276 278 247
235 235 234 234 234 232 228 225 227 223 220 221 225 234 245 253 265 267 267 267 267 255
242 240 240 239 237 235 233 229 228 228 228 229 232 237 246 255 260 262 261 265 264 249
246 248 248 242 240 239 236 234 232 231 232 233 235 238 242 248 256 258 258 260 254 238
262 254 254 252 250 243 238 236 236 235 232 234 234 237 239 245 252 255 254 255 242 229
257 257 256 252 252 251 248 242 236 235 234 234 231 232 234 238 246 248 251 248 237 224
249 251 253 253 250 252 250 248 241 235 234 232 231 231 232 235 238 243 246 244 234 223
249 248 249 234 243 260 250 245 243 237 233 231 231 223 228 223 229 231 232 234 228 225
250 250 253 234 231 249 254 247 241 235 230 228 228 223 221 218 219 225 217 217 218 219
252 250 252 253 250 254 252 251 248 239 234 230 229 225 216 223 215 216 210 204 208 211
291 272 268 261 256 251 238 228 227 235 268 248 236 224 210 213 214 216 209 207 209 207